RAVAN

Last updated on Sat Mar 14 2026 00:03:56 GMT+0000 (Coordinated Universal Time)

1 41849U 16067B 26072.59081523 .00045653 00000+0 91730-3 0 9991 2 41849 98.0040 311.7097 0005759 352.6768 7.4395 15.46500360512882
UTC large
Height (km)
Speed (km/s)
/
Latitude / Longitude
Inclination (degrees)
Orbital Period (minutes)
Azimuth
Elevation
Range (km)
Doppler Factor

Next 0 passes for location: London (51.5072 / 0.1276)

Sorry there are no passes over London.